Starlink 33732

operational
NORAD ID: 63575 Int'l Des: 2025-076 Owner: SPXS Country: US Constellation: starlink
LEOCIRCULAR

Über Starlink 33732

Beschreibung wird geladen...

Live-Position

3D-Globus wird geladen...

Nächste Überflüge

Höhenverlauf

Altitude vs Time

uPlot chart will show altitude changes over time

Zweizeiliger Elementsatz

1 63575U 25076G 26035.63656433 .00027473 00000-0 10033-2 0 9990
2 63575 43.0033 148.5183 0002702 285.0923 74.9629 15.27605710 46776
Epoch: 4. Feb. 2026 • Age: 24 hours

Aktueller Status

Höhe 485.1 km
Geschwindigkeit 7.62 km/s
Subsatellitenpunkt -12.45°S, 34.61°W
Startdatum 14. Apr. 2025
Alter 0.8 years
Typ internet

Technische Details

Klassifizierung Payload
Masse 575.00 kg
Trockenmasse 530.00 kg
Gesamtmasse 575.00 kg
Länge 0.30 m
Durchmesser 4.10 m
Spannweite 29.00 m
Form Box + pan
Hersteller SPXS
Bus-Typ Starlink V2MO
Phasenstatus In Orbit
Besitzer/Staat SPXS/US

Große Konstellationen

Loading constellations...